Location: Castro Valley
(37.6940°N, 122.0850°W)
Time: 23:59:11

PANSAT - Visible Passes

Search period start: 29 November 2015 00:00
Search period end: 09 December 2015 00:00
Orbit: 481 x 488 km, 28.5° (Epoch: 29 November)

Date Brightness Start Highest point End Pass type
(mag) Time Alt. Az. Time Alt. Az. Time Alt. Az.
29 Nov 10.0 18:15:22 10° SW 18:17:50 16° S 18:20:17 10° SSE visible
30 Nov 10.1 17:47:13 10° SW 17:49:39 16° S 17:52:04 10° SSE visible
01 Dec 10.2 17:19:03 10° SW 17:21:28 16° S 17:23:52 10° SSE visible
